Regional Weather Roundup
Issued by NWS Wakefield, VA

Home | Current Version | Previous Version | Graphics & Text | Print | Product List | Glossary On
Versions: 1 2 3 4 5 6 7 8 9 10 11 12 13 14 15 16 17 18 19 20 21 22 23 24 25 26 27
000
ASUS41 KAKQ 280315
RWRAKQ

REGIONAL WEATHER ROUNDUP
NATIONAL WEATHER SERVICE WAKEFIELD VA
1100 PM EDT THU APR 27 2017

Note: "fair" indicates few or no clouds below 12,000 feet with no
significant weather and/or obstructions to visibility. * = Denotes
station may not report precipitation (e.g., rain,snow,etc.),
thunder or fog.

VAZ042-051-052>054-056-280400-
NORTHERN VIRGINIA

CITY           SKY/WX    TMP DP  RH WIND       PRES   REMARKS
WASH NATIONAL  CLOUDY    74  62  66 SW13      29.82R
DULLES         CLOUDY    73  58  59 S16G24    29.81R
FORT BELVOIR   LGT RAIN  73  59  60 S6        29.82S
QUANTICO       LGT RAIN  73  62  68 SW9G24    29.84R
FREDERICKSBRG* CLOUDY    75  60  58 SW9G17    29.84S
STAFFORD*      LGT RAIN  68  64  85 SW5       29.87S
WARRENTON      CLOUDY    69  59  70 SW7       29.83F
CULPEPER*      CLOUDY    69  62  80 S3        29.85F
MANASSAS*        N/A     69  62  78 S8        29.83R
LEESBURG*      MOCLDY    73  61  64 SW7       29.82F
WINCHESTER     CLOUDY    70  57  64 SW7       29.82R
FRONT ROYAL*   CLOUDY    68  61  77 SW6       29.81F
LURAY*         CLEAR     66  61  82 S10       29.84S
$$

VAZ048-049-060>072-079>083-280400-
CENTRAL AND SOUTH CENTRAL VIRGINIA

CITY           SKY/WX    TMP DP  RH WIND       PRES   REMARKS
RICHMOND       CLOUDY    73  59  61 SW12      29.88R
CHESTERFIELD*  MOCLDY   N/A N/A N/A SW6       29.89R
PETERSBURG*    PTCLDY    69  58  67 S3        29.90R
HANOVER        PTCLDY    74  57  55 S9        29.88R
TAPPAHANNOCK*  PTCLDY    72  55  53 S3        29.87S
QUINTON*       FAIR      72  61  68 SW3       29.87R
CHARLOTTSVILLE CLOUDY    65  63  93 S8        29.85F
GORDONSVILLE*  CLOUDY    67  62  82 SW5       29.85S
ORANGE*        CLOUDY    64  63  94 CALM      29.85S
LOUISA*        PTCLDY    70  66  88 CALM      29.85F
BUMPASS*       MOCLDY    71  58  64 SW3       29.86S
FARMVILLE*     CLOUDY    71  60  67 S3        29.87R
CREWE*         CLOUDY    70  61  71 S3        29.89R
FORT PICKETT*  CLOUDY    70  58  64 S7        29.90R
CHASE CITY*    CLOUDY    69  60  72 CALM      29.89S
CLARKSVILLE*   CLOUDY    70  63  78 S5        29.88S
SOUTH HILL*    CLOUDY    69  62  77 S7        29.96R
LAWRENCEVILLE* MOCLDY    69  60  72 CALM      29.91R
EMPORIA*       MOCLDY    70  59  68 SE3       29.92R
$$

VAZ088>098-280400-
SOUTHEAST VIRGINIA

CITY           SKY/WX    TMP DP  RH WIND       PRES   REMARKS
NORFOLK        CLOUDY    74  62  66 SW12      29.90R
VIRGINIA BEACH CLOUDY    72  61  68 S13       29.90R
NORFOLK NAVAL  MOCLDY    74  61  63 SW10      29.91R
WEST POINT*    CLOUDY    66  61  81 CALM      29.88S
SALUDA*        FAIR      71  62  72 S3        29.87S
NEWPORT NEWS   CLOUDY    73  60  63 S12       29.89R
LANGLEY AFB    PTCLDY    74  63  68 S10       29.88S
FORT EUSTIS    CLOUDY    73  61  64 S5        29.87R
WILLIAMSBURG*  CLOUDY    73  63  68 CALM      29.90R
HR EXEC AP*    FAIR      72  61  68 S7        29.89R
FRANKLIN*      CLOUDY    71  61  71 S7        29.92R
US460-WAKEFLD  MOCLDY    72  60  66 SW3       29.90R
$$

VAZ020-022-025-037-045-280400-
WEST CENTRAL AND SOUTHWEST VIRGINIA

CITY           SKY/WX    TMP DP  RH WIND       PRES   REMARKS
STAUNTON*      PTCLDY    63  59  88 S7        29.90R
WAYNESBORO*    CLOUDY    62  61  98 CALM      29.88S
HOT SPRINGS VA CLEAR     55  52  88 W15       29.96R
LYNCHBURG      PTCLDY    66  59  78 W5        29.90S
DANVILLE       CLOUDY    65  65 100 CALM      29.90F
SOUTH BOSTON*  CLOUDY    69  61  75 CALM      29.88S
MARTINSVILLE   CLOUDY    62  61  96 CALM      29.95R FOG
ROANOKE        PTCLDY    63  62  97 CALM      29.93R
BLACKSBURG     CLOUDY    59  57  96 CALM      29.97R FOG
DUBLIN*        FOG       59  56  89 CALM      29.96R VSB 1/4
MARION*        MOCLDY    60  59  96 CALM      29.98R
HILLSVILLE*    MOCLDY    57  57 100 CALM      29.95F FOG
RICHLANDS*     FAIR      59  57  94 SE5       29.94R
WISE*          PTCLDY    61  61 100 CALM      29.94S
ABINGDON*      FOG       60  60 100 CALM      29.93R VSB 1/4
$$

MDZ021>025-VAZ099-100-280400-
SOUTHERN MARYLAND AND THE DELMARVA PENINSULA

CITY           SKY/WX    TMP DP  RH WIND       PRES   REMARKS
PATUXENT RIVER CLOUDY    73  62  68 SW10      29.84S
BAY BRIDGE APT CLOUDY    72  61  68 S9        29.82F
LEONARDTOWN    CLOUDY    73  59  60 SW6       29.87S
DOVER          PTCLDY    68  68 100 S9        29.83S
GEORGETOWN     CLEAR     68  62  81 S9        29.87R
EASTON         CLOUDY    72  63  72 S9        29.87F
CAMBRIDGE        N/A     68  64  88 S7        29.85S
SALISBURY      CLEAR     66  63  90 S7        29.87R
OCEAN CITY     CLEAR     64  59  83 SW10      29.88F
WALLOPS ISLAND CLEAR     64  60  87 S13       29.89S
ACCOMACK*      CLEAR     67  63  85 S6        29.89R
$$

NCZ012>017-030>032-280400-
NORTH CENTRAL AND EASTERN NORTH CAROLINA

CITY           SKY/WX    TMP DP  RH WIND       PRES   REMARKS
ROANOKE RAPIDS FAIR      70  63  78 S7        29.91R
RALEIGH        CLOUDY    74  64  71 S10       29.91R
ELIZABETH CITY MOCLDY    73  65  75 S14       29.93R
AHOSKIE*         N/A     70  64  79 S6        29.93R
EDENTON*       MOCLDY    73  65  74 SW9       29.95R
CURRITUCK*     MOCLDY    73  63  72 S8        29.94R
KILL DEVIL HLS MOCLDY    72  63  74 SW8       29.94S
MANTEO         MOCLDY    71  64  79 SW14      29.96S
CAPE HATTERAS  CLEAR     73  69  87 SW10      29.98R FOG
TARBORO*       NOT AVBL
GOLDSBORO      MOCLDY    73  70  89 S6        29.94R
WASHINGTON     CLOUDY    72  64  74 S7        29.96R
GREENVILLE     CLOUDY    73  64  73 SW9       29.97R
NEW BERN       CLOUDY    72  67  84 S8        29.98R
WILMINGTON     CLOUDY    74  71  91 S9        29.98R
$$

VAZ048-280400-
ELSEWHERE

CITY           SKY/WX    TMP DP  RH WIND       PRES   REMARKS
HARRISBURG PA  MOCLDY    70  60  70 SE5       29.78S
BALTIMORE      CLOUDY    69  61  75 CALM      29.80F
ANNAPOLIS      MOCLDY    67  61  81 S10       29.81F
ANDREWS AFB    CLOUDY    73  59  60 SW14      29.82S
PHILADELPHIA   CLOUDY    68  61  78 CALM      29.83F
HENDERSON NC   CLOUDY    69  60  74 S9        29.90S
GREENSBORO     LGT RAIN  67  67 100 NW6       29.91R FOG
ROCKY MOUNT    PTCLDY    73  65  75 S8        29.93R
$$

VAZ100-280400-
MARINE

STATION/POSITION TIME  TEMP    WIND        PRES    WAVE   SWELL
                       AIR SEA DIR/SP/G            HT/PER HT/PER
                 (UTC) (F)     (DEG/KT/KT) (MB)    (FT/S) (FT/S)
CAPE MAY NJ      0248   60 58  150/  9/ 13 1011.0F
LEWES DE         0248   67 56  190/  5/  8 1011.1S
15NM E FENWICK I 0250   58 52  180/ 14/ 17 1012.0S   5/10   3/10
WACHAPREAGUE VA  0242   66 66  180/ 11/ 17 1011.7R
THOMAS POINT MD  0300   65 59  170/ 15/ 15   N/A
GOOSES REEF MD   0300   64 55  170/ 12/ 14 1010.9    2/ 3
COVE POINT MD    0242   63     180/  9/  9 1011.1R
SOLOMONS ISLAND  0242   71 61  220/ 12/ 13   N/A
BISHOPS HEAD MD  0248   66 68  170/  8/ 10 1011.5R
PINEY POINT MD   0248          230/  9/ 10   N/A
POTOMAC MD       0300   65 63  160/  8/  8 1010.1    1
CAMBRIDGE MD     0242   68 64                N/A
LEWISETTA VA     0242   75 66  220/  8/ 10 1010.5F
RAPPAHANNOCK LGT 0248          170/ 13/ 14 1012.4R
STINGRAY PT      0300   66 63  180/  6/  8 1011.6    1/ 2
YORK RVR RNG VA  0242   70     190/ 12/ 13 1011.3R
YORKTOWN VA      0242   75 65  200/  6/  9 1011.5R
JAMESTOWN VA     0300   72 69  190/  4/  6   N/A     0
DOMINION TERM VA 0242   71     190/  9/ 12 1012.3R
KIPTOPEKE VA     0248      63  190/ 10/ 11   N/A
CHES BAY BRIDGE  0242   73 63  220/ 14/ 16 1012.2R
CAPE HENRY VA    0242   74     200/  7/ 12   N/A
WILLOUBY STN VA  0242   74     200/ 14/ 16 1013.2R
S CRANEY ISL VA  0242   73     190/  7/ 12 1012.3R
CAPE HENRY BUOY  0242      62                N/A     4/ 9   2/11
1ST LANDING BUOY 0300   70 62              1012.6    2/ 3
CAPE CHARLES BUO 0251      59                N/A     3/ 8   2/11
64NM E OF VA BCH 0250   61 57  190/ 14/ 14 1014.4R   5/ 8   3/ 8
DUCK PIER NC     0242   73 58  210/ 14/ 19 1013.3R
44100 DUCK FRF   0235      62                N/A     4/11   2/11
44056 DUCK FRF   0230      62                N/A     3/11   2/11
OREGON INLET NC  0248          200/ 15/ 18   N/A
HATTERAS NC      0242   74 72  200/  9/ 13 1015.1R
DIAMOND SHLS NC  0250   77 77  200/ 19/ 23 1015.1R   5/ 8   3/ 8
CAPE LOOKOUT NC  0300   73     210/  9/ 12 1015.4R
$$




USA.gov is the U.S. government's official web portal to all federal, state and local government web resources and services.